When you browse on this site, cookies collect data to enhance your experience and personalize the content and advertising you see.
Visit our Privacy Policy to learn more. By continuing to use the site, you agree to this use of cookies and data.
  • In Czech Republic
  • List of Countries
  • For 7 days
  • Water Temperature
  • Satellite Maps
  • Weather Map
  • Weather Widgets
  • user-avatar
    Login

    Hourly Weather Konakry

    Today, 16 December, Sunday

    Time Temperature Precipitation Wind Pressure Humidity
    00:00 +27°C° 0 mm 2 mps 757 mmHg 60%
    01:00 +26°C° 0 mm 2 mps 757 mmHg 60%
    02:00 +26°C° 0 mm 2 mps 757 mmHg 60%
    03:00 +25°C° 0 mm 2 mps 757 mmHg 58%
    04:00 +25°C° 0 mm 2 mps 757 mmHg 57%
    05:00 +25°C° 0 mm 2 mps 757 mmHg 56%
    06:00 +26°C° 0 mm 2 mps 757 mmHg 51%
    07:00 +27°C° 0 mm 1 mps 757 mmHg 45%
    08:00 +29°C° 0 mm 1 mps 758 mmHg 40%
    09:00 +31°C° 0 mm 2 mps 758 mmHg 33%
    10:00 +34°C° 0 mm 2 mps 757 mmHg 26%
    11:00 +37°C° 0 mm 2 mps 757 mmHg 20%
    12:00 +37°C° 0 mm 2 mps 757 mmHg 20%
    13:00 +38°C° 0 mm 3 mps 756 mmHg 21%
    14:00 +38°C° 0 mm 3 mps 755 mmHg 21%
    15:00 +37°C° 0 mm 3 mps 755 mmHg 28%
    16:00 +35°C° 0 mm 4 mps 755 mmHg 35%
    17:00 +33°C° 0 mm 4 mps 755 mmHg 42%
    18:00 +31°C° 0 mm 3 mps 756 mmHg 50%
    19:00 +29°C° 0 mm 3 mps 756 mmHg 58%
    20:00 +28°C° 0 mm 2 mps 757 mmHg 65%
    21:00 +27°C° 0 mm 2 mps 757 mmHg 68%
    22:00 +27°C° 0 mm 2 mps 757 mmHg 70%
    23:00 +27°C° 0 mm 2 mps 757 mmHg 72%

    Tomorrow, 17 December, Monday

    Time Temperature Precipitation Wind Pressure Humidity
    00:00 +26°C° 0 mm 2 mps 757 mmHg 73%
    01:00 +26°C° 0 mm 1 mps 757 mmHg 75%
    02:00 +25°C° 0 mm 1 mps 757 mmHg 76%
    03:00 +25°C° 0 mm 1 mps 757 mmHg 77%
    04:00 +25°C° 0 mm 1 mps 757 mmHg 77%
    05:00 +24°C° 0 mm 1 mps 756 mmHg 78%
    06:00 +26°C° 0 mm 1 mps 757 mmHg 73%
    07:00 +27°C° 0 mm 1 mps 757 mmHg 67%
    08:00 +28°C° 0 mm 1 mps 757 mmHg 62%
    09:00 +31°C° 0 mm 1 mps 757 mmHg 52%
    10:00 +33°C° 0 mm 1 mps 757 mmHg 43%
    11:00 +35°C° 0 mm 1 mps 757 mmHg 34%
    12:00 +36°C° 0 mm 2 mps 756 mmHg 35%
    13:00 +36°C° 0 mm 3 mps 755 mmHg 35%
    14:00 +37°C° 0 mm 3 mps 755 mmHg 36%
    15:00 +35°C° 0 mm 4 mps 755 mmHg 44%
    16:00 +33°C° 0 mm 4 mps 755 mmHg 51%
    17:00 +32°C° 0 mm 4 mps 755 mmHg 59%
    18:00 +30°C° 0 mm 3 mps 755 mmHg 65%
    19:00 +29°C° 0 mm 3 mps 756 mmHg 71%
    20:00 +27°C° 0 mm 3 mps 757 mmHg 77%
    21:00 +27°C° 0 mm 3 mps 757 mmHg 79%
    22:00 +27°C° 0 mm 2 mps 757 mmHg 80%
    23:00 +27°C° 0 mm 2 mps 757 mmHg 82%

    Day after tomorrow, 18 December, Tuesday

    Time Temperature Precipitation Wind Pressure Humidity
    00:00 +26°C° 0 mm 2 mps 757 mmHg 83%
    01:00 +26°C° 0 mm 2 mps 757 mmHg 84%
    02:00 +26°C° 0 mm 2 mps 756 mmHg 85%
    03:00 +25°C° 0 mm 2 mps 756 mmHg 86%
    04:00 +25°C° 0 mm 2 mps 756 mmHg 87%
    05:00 +25°C° 0 mm 2 mps 756 mmHg 88%
    06:00 +26°C° 0 mm 2 mps 757 mmHg 83%
    07:00 +27°C° 0 mm 2 mps 757 mmHg 79%
    08:00 +28°C° 0 mm 1 mps 758 mmHg 74%
    09:00 +30°C° 0 mm 2 mps 758 mmHg 66%
    10:00 +32°C° 0 mm 2 mps 758 mmHg 58%
    11:00 +34°C° 0 mm 2 mps 757 mmHg 50%
    12:00 +35°C° 0 mm 3 mps 757 mmHg 49%
    13:00 +35°C° 0 mm 3 mps 756 mmHg 49%
    14:00 +35°C° 0 mm 4 mps 755 mmHg 48%
    15:00 +34°C° 0 mm 4 mps 755 mmHg 53%
    16:00 +33°C° 0 mm 4 mps 755 mmHg 59%
    17:00 +30°C° 0 mm 4 mps 755 mmHg 64%
    18:00 +29°C° 0 mm 3 mps 756 mmHg 69%
    19:00 +29°C° 0 mm 3 mps 756 mmHg 73%
    20:00 +28°C° 0 mm 3 mps 757 mmHg 77%
    21:00 +27°C° 0 mm 3 mps 757 mmHg 79%
    22:00 +27°C° 0 mm 2 mps 757 mmHg 80%
    23:00 +27°C° 0 mm 2 mps 757 mmHg 81%

    19 December, Wednesday

    Time Temperature Precipitation Wind Pressure Humidity
    00:00 +27°C° 0 mm 2 mps 757 mmHg 82%
    01:00 +26°C° 0 mm 2 mps 757 mmHg 84%
    02:00 +26°C° 0 mm 2 mps 756 mmHg 85%
    03:00 +26°C° 0 mm 2 mps 756 mmHg 85%
    04:00 +26°C° 0 mm 2 mps 756 mmHg 86%
    05:00 +25°C° 0 mm 2 mps 756 mmHg 87%
    06:00 +26°C° 0 mm 2 mps 757 mmHg 83%
    07:00 +27°C° 0 mm 1 mps 757 mmHg 78%
    08:00 +28°C° 0 mm 1 mps 758 mmHg 73%
    09:00 +30°C° 0 mm 1 mps 757 mmHg 64%
    10:00 +33°C° 0 mm 1 mps 757 mmHg 54%
    11:00 +36°C° 0 mm 2 mps 757 mmHg 44%
    12:00 +36°C° 0 mm 2 mps 756 mmHg 44%
    13:00 +36°C° 0 mm 3 mps 755 mmHg 43%
    14:00 +36°C° 0 mm 3 mps 754 mmHg 42%
    15:00 +35°C° 0 mm 4 mps 754 mmHg 49%
    16:00 +33°C° 0 mm 4 mps 754 mmHg 55%
    17:00 +32°C° 0 mm 4 mps 754 mmHg 62%
    18:00 +30°C° 0 mm 4 mps 755 mmHg 66%
    19:00 +29°C° 0 mm 3 mps 756 mmHg 71%
    20:00 +28°C° 0 mm 3 mps 756 mmHg 76%
    21:00 +27°C° 0 mm 3 mps 756 mmHg 77%
    22:00 +27°C° 0 mm 2 mps 756 mmHg 78%
    23:00 +27°C° 0 mm 2 mps 756 mmHg 79%

    20 December, Thursday

    Time Temperature Precipitation Wind Pressure Humidity
    00:00 +26°C° 0 mm 2 mps 756 mmHg 81%
    01:00 +26°C° 0 mm 1 mps 756 mmHg 82%
    02:00 +26°C° 0 mm 1 mps 755 mmHg 84%
    03:00 +25°C° 0 mm 2 mps 755 mmHg 85%
    04:00 +25°C° 0 mm 2 mps 755 mmHg 86%
    05:00 +25°C° 0 mm 2 mps 756 mmHg 87%
    06:00 +26°C° 0 mm 2 mps 756 mmHg 82%
    07:00 +27°C° 0 mm 2 mps 756 mmHg 76%
    08:00 +28°C° 0 mm 1 mps 757 mmHg 71%
    09:00 +30°C° 0 mm 1 mps 757 mmHg 61%
    10:00 +33°C° 0 mm 1 mps 756 mmHg 51%
    11:00 +35°C° 0 mm 1 mps 756 mmHg 41%
    12:00 +36°C° 0 mm 2 mps 755 mmHg 41%
    13:00 +37°C° 0 mm 3 mps 755 mmHg 40%
    14:00 +37°C° 0 mm 3 mps 754 mmHg 39%
    15:00 +35°C° 0 mm 4 mps 754 mmHg 48%
    16:00 +33°C° 0 mm 4 mps 754 mmHg 56%
    17:00 +30°C° 0 mm 4 mps 754 mmHg 64%
    18:00 +30°C° 0 mm 4 mps 755 mmHg 68%
    19:00 +29°C° 0 mm 4 mps 755 mmHg 73%
    20:00 +28°C° 0 mm 3 mps 756 mmHg 77%
    21:00 +27°C° 0 mm 3 mps 756 mmHg 79%
    22:00 +27°C° 0 mm 2 mps 756 mmHg 80%
    23:00 +27°C° 0 mm 2 mps 756 mmHg 81%

    21 December, Friday

    Time Temperature Precipitation Wind Pressure Humidity
    00:00 +27°C° 0 mm 2 mps 756 mmHg 82%
    01:00 +27°C° 0 mm 2 mps 756 mmHg 83%
    02:00 +26°C° 0 mm 2 mps 755 mmHg 84%
    03:00 +26°C° 0 mm 2 mps 755 mmHg 84%
    04:00 +26°C° 0 mm 2 mps 756 mmHg 84%
    05:00 +26°C° 0 mm 2 mps 756 mmHg 83%
    06:00 +27°C° 0 mm 2 mps 756 mmHg 80%
    07:00 +28°C° 0 mm 1 mps 757 mmHg 77%
    08:00 +29°C° 0 mm 1 mps 757 mmHg 74%
    09:00 +31°C° 0 mm 1 mps 757 mmHg 66%
    10:00 +32°C° 0 mm 1 mps 756 mmHg 58%
    11:00 +34°C° 0 mm 1 mps 756 mmHg 50%
    12:00 +36°C° 0 mm 2 mps 755 mmHg 49%
    13:00 +36°C° 0 mm 3 mps 755 mmHg 48%
    14:00 +36°C° 0 mm 3 mps 754 mmHg 47%
    15:00 +35°C° 0 mm 3 mps 754 mmHg 53%
    16:00 +33°C° 0 mm 4 mps 754 mmHg 59%
    17:00 +32°C° 0 mm 4 mps 754 mmHg 64%
    18:00 +30°C° 0 mm 4 mps 755 mmHg 69%
    19:00 +29°C° 0 mm 3 mps 755 mmHg 74%
    20:00 +28°C° 0 mm 3 mps 756 mmHg 79%
    21:00 +28°C° 0 mm 3 mps 756 mmHg 81%
    22:00 +28°C° 0 mm 2 mps 756 mmHg 82%
    23:00 +27°C° 0 mm 2 mps 756 mmHg 84%
    Show more